IGO6653 VOBL-VOGO

Flight info

Callsign IGO6653
Flight time N/A
Altitude 32000
Route GUNIM7B GUNIM R461 GONAB GONAB2A
Aircraft A21N/M-SDE3FGHIRWY/LB1

Departure

Time N/A
Airport Kempegowda International Airport Bengaluru (VOBL)

Arrival

Time 2026-05-01 07:58
Airport Goa Dabolim International Airport (VOGO)
Time Latitude Longitude Altitude Speed Heading
2026-05-01 07:23 13.49725 77.00394 18853 ft 455 kts 294°
2026-05-01 07:23 13.52218 76.94235 19694 ft 464 kts 294°
2026-05-01 07:24 13.53472 76.91133 20124 ft 467 kts 294°
2026-05-01 07:24 13.54737 76.88001 20549 ft 471 kts 294°
2026-05-01 07:24 13.56010 76.84851 20964 ft 474 kts 294°
2026-05-01 07:24 13.57296 76.81666 21376 ft 478 kts 294°
2026-05-01 07:25 13.58587 76.78465 21780 ft 481 kts 293°
2026-05-01 07:25 13.59886 76.75243 22188 ft 484 kts 293°
2026-05-01 07:25 13.61194 76.71996 22599 ft 487 kts 293°
2026-05-01 07:25 13.62491 76.68778 22997 ft 490 kts 293°
2026-05-01 07:26 13.63824 76.65467 23396 ft 493 kts 293°
2026-05-01 07:26 13.65142 76.62194 23867 ft 493 kts 294°
2026-05-01 07:26 13.66467 76.58899 24459 ft 491 kts 294°
2026-05-01 07:26 13.67769 76.55662 25034 ft 489 kts 294°
2026-05-01 07:27 13.69082 76.52397 25581 ft 488 kts 294°
2026-05-01 07:27 13.70397 76.49124 26105 ft 487 kts 294°
2026-05-01 07:27 13.71705 76.45870 26614 ft 486 kts 294°
2026-05-01 07:27 13.72990 76.42671 27105 ft 485 kts 294°
2026-05-01 07:28 13.74293 76.39424 27592 ft 484 kts 294°
2026-05-01 07:28 13.75590 76.36193 28070 ft 483 kts 294°
2026-05-01 07:28 13.76859 76.33031 28528 ft 482 kts 293°
2026-05-01 07:28 13.78159 76.29788 28985 ft 481 kts 293°
2026-05-01 07:29 13.79439 76.26596 29431 ft 480 kts 293°
2026-05-01 07:29 13.80726 76.23383 29877 ft 479 kts 293°
2026-05-01 07:29 13.81976 76.20262 30298 ft 478 kts 293°
2026-05-01 07:29 13.83261 76.17052 30670 ft 479 kts 293°
2026-05-01 07:30 13.84523 76.13899 30970 ft 480 kts 293°
2026-05-01 07:30 13.85806 76.10689 31254 ft 482 kts 293°
2026-05-01 07:30 13.87081 76.07502 31531 ft 483 kts 293°
2026-05-01 07:30 13.88369 76.04276 31800 ft 484 kts 293°
2026-05-01 07:31 13.89665 76.01032 31923 ft 486 kts 293°
2026-05-01 07:32 13.95656 75.86011 31915 ft 487 kts 293°
2026-05-01 07:33 13.99558 75.76211 31912 ft 487 kts 293°
2026-05-01 07:33 14.03412 75.66523 31911 ft 487 kts 293°
2026-05-01 07:34 14.07485 75.56845 31911 ft 486 kts 298°
2026-05-01 07:35 14.10863 75.50819 31911 ft 485 kts 305°
2026-05-01 07:35 14.14858 75.45174 31912 ft 484 kts 309°
2026-05-01 07:36 14.19039 75.39685 31911 ft 484 kts 310°
2026-05-01 07:36 14.23165 75.34260 31911 ft 484 kts 309°
2026-05-01 07:37 14.29418 75.26002 31911 ft 484 kts 309°
2026-05-01 07:37 14.33584 75.20489 31911 ft 484 kts 309°
2026-05-01 07:38 14.37736 75.14990 31911 ft 484 kts 309°
2026-05-01 07:39 14.43987 75.06706 31520 ft 487 kts 309°
2026-05-01 07:39 14.46074 75.03939 30673 ft 489 kts 309°
2026-05-01 07:39 14.50309 74.98320 28785 ft 493 kts 309°
2026-05-01 07:40 14.52415 74.95525 27865 ft 494 kts 309°
2026-05-01 07:40 14.54547 74.92693 26922 ft 494 kts 309°
2026-05-01 07:40 14.56668 74.89874 25970 ft 495 kts 309°
2026-05-01 07:40 14.58770 74.87080 25005 ft 496 kts 309°
2026-05-01 07:41 14.60901 74.84248 24008 ft 497 kts 309°
2026-05-01 07:41 14.63031 74.81415 23010 ft 497 kts 309°
2026-05-01 07:41 14.67258 74.75789 21571 ft 483 kts 309°
2026-05-01 07:42 14.69317 74.73034 20887 ft 476 kts 309°
2026-05-01 07:42 14.71336 74.70293 20243 ft 469 kts 308°
2026-05-01 07:42 14.73291 74.67624 19624 ft 463 kts 308°
2026-05-01 07:42 14.75249 74.64949 18994 ft 456 kts 308°
2026-05-01 07:43 14.77184 74.62307 18360 ft 451 kts 308°
2026-05-01 07:43 14.79083 74.59716 17732 ft 446 kts 308°
2026-05-01 07:43 14.82819 74.54620 16479 ft 436 kts 308°
2026-05-01 07:44 14.86450 74.49665 15235 ft 426 kts 308°
2026-05-01 07:44 14.90037 74.44769 13985 ft 417 kts 308°
2026-05-01 07:45 14.91811 74.42346 13364 ft 413 kts 308°
2026-05-01 07:45 14.93541 74.39983 12753 ft 409 kts 308°
2026-05-01 07:45 14.95260 74.37633 12297 ft 399 kts 308°
2026-05-01 07:45 14.96940 74.35336 11913 ft 388 kts 308°
2026-05-01 07:46 14.98552 74.33131 11596 ft 377 kts 308°
2026-05-01 07:46 15.00122 74.30982 11384 ft 363 kts 308°
2026-05-01 07:46 15.03284 74.27038 10896 ft 339 kts 322°
2026-05-01 07:47 15.05324 74.25874 10671 ft 326 kts 342°
2026-05-01 07:47 15.07512 74.25369 10481 ft 314 kts 351°
2026-05-01 07:47 15.09667 74.25024 10303 ft 302 kts 352°
2026-05-01 07:47 15.11733 74.24706 10144 ft 291 kts 352°
2026-05-01 07:48 15.15667 74.24070 9778 ft 277 kts 351°
2026-05-01 07:48 15.17592 74.23748 9399 ft 277 kts 351°
2026-05-01 07:48 15.19504 74.23425 9043 ft 275 kts 351°
2026-05-01 07:49 15.21410 74.23102 8697 ft 274 kts 351°
2026-05-01 07:49 15.25203 74.22458 8015 ft 271 kts 351°
2026-05-01 07:49 15.27079 74.22139 7677 ft 269 kts 350°
2026-05-01 07:50 15.28942 74.21822 7341 ft 267 kts 350°
2026-05-01 07:50 15.32643 74.21193 6673 ft 264 kts 350°
2026-05-01 07:50 15.34478 74.20880 6343 ft 262 kts 350°
2026-05-01 07:51 15.36252 74.20448 6004 ft 261 kts 338°
2026-05-01 07:51 15.37870 74.19542 5667 ft 258 kts 323°
2026-05-01 07:51 15.39275 74.18385 5349 ft 255 kts 320°
2026-05-01 07:52 15.41906 74.16084 5169 ft 231 kts 320°
2026-05-01 07:52 15.43097 74.14977 5105 ft 220 kts 306°
2026-05-01 07:52 15.43671 74.13510 5023 ft 221 kts 277°
2026-05-01 07:53 15.43361 74.10305 4516 ft 219 kts 259°
2026-05-01 07:53 15.43049 74.08759 4280 ft 218 kts 259°
2026-05-01 07:53 15.42729 74.07189 4043 ft 217 kts 259°
2026-05-01 07:53 15.42417 74.05630 3808 ft 216 kts 259°
2026-05-01 07:54 15.41814 74.02542 3441 ft 214 kts 259°
2026-05-01 07:55 15.40943 73.98041 2856 ft 199 kts 259°
2026-05-01 07:55 15.40404 73.95255 2258 ft 188 kts 259°
2026-05-01 07:56 15.39668 73.91454 1520 ft 157 kts 259°
2026-05-01 07:56 15.39272 73.89405 1111 ft 138 kts 258°
2026-05-01 07:57 15.39080 73.88414 930 ft 138 kts 258°
2026-05-01 07:57 15.38737 73.86437 578 ft 137 kts 257°
2026-05-01 07:58 15.38331 73.84490 195 ft 129 kts 258°
2026-05-01 07:58 15.38078 73.83282 161 ft 40 kts 259°
2026-05-01 07:59 15.38087 73.83061 163 ft 11 kts 347°
2026-05-01 07:59 15.38230 73.83145 157 ft 17 kts 76°
2026-05-01 08:00 15.38310 73.83504 159 ft 2 kts 59°
2026-05-01 08:01 15.38425 73.83494 152 ft 1 kts 346°
2026-05-01 08:01 15.38436 73.83491 151 ft 0 kts 347°
2026-05-01 08:50 15.38437 73.83491 151 ft 0 kts 348°